Date String (YYYY-MM-DD hh:mm:ss) UTC,Instrument flags,absolute air pressure of the measurement (hPa),sample flow rate (lpm),inlet stack bypass flow (lpm),air temperature of the measurement (°C),ambient temperature measured by the external sensor (°C),aerosol sample conditioner tube jacket temperature (°C),OPC LED temperature (°C),internal box temperature (°C),relative humidity of the measurement (%),span deviation,mass concentration of particles derived from Lorenz-Mie calculation of OPC scattering (μg/m³),mass concentration of particles derived from Lorenz-Mie calculation of OPC scattering (μg/m³),mass concentration of particles derived from Lorenz-Mie calculation of OPC scattering (μg/m³)
DateTimeUTC,F1_M11,P_M11,Q1_M11,Q2_M11,T1_M11,T2_M11,T3_M11,T4_M11,T5_M11,U1_M11,ZSPAN_M11,X0_M11,X2_M11,X1_M11
2024-05-26 07:00:00,SystemResetWarning,0822.4,4.99,000.00,028.6,027.8,000.0,036.9,030.3,015.9,0000.0,0002.65,0000.57,0000.24
2024-05-26 07:01:00,SystemResetWarning,0822.3,4.99,000.00,028.6,027.8,000.0,036.9,030.3,015.9,0000.0,0002.63,0000.57,0000.23
2024-05-26 07:02:00,SystemResetWarning,0822.2,5.00,000.00,028.6,027.8,000.0,036.9,030.3,015.9,0000.0,0002.35,0000.52,0000.22
2024-05-26 07:03:00,SystemResetWarning,0822.3,5.01,000.00,028.6,027.8,000.0,036.9,030.3,015.9,0000.0,0002.07,0000.48,0000.21
2024-05-26 07:04:00,SystemResetWarning,0822.2,5.01,000.00,028.6,027.8,000.0,036.9,030.3,015.9,0000.0,0001.41,0000.48,0000.19
2024-05-26 07:05:00,SystemResetWarning,0822.1,5.00,000.00,028.6,027.8,000.0,036.9,030.3,015.9,0000.0,0001.35,0000.45,0000.18
2024-05-26 07:06:00,SystemResetWarning,0822.1,5.00,000.00,028.6,027.8,000.0,036.9,030.3,016.0,0000.0,0001.32,0000.43,0000.17
2024-05-26 07:07:00,SystemResetWarning,0822.1,5.00,000.00,028.6,027.8,000.0,036.9,030.3,015.9,0000.0,0001.32,0000.42,0000.16
2024-05-26 07:08:00,SystemResetWarning,0822.1,4.99,000.00,028.6,027.7,000.0,036.9,030.3,015.9,0000.0,0001.27,0000.40,0000.15
2024-05-26 07:09:00,SystemResetWarning,0822.1,4.99,000.00,028.6,027.7,000.0,036.9,030.3,015.8,0000.0,0001.17,0000.35,0000.13
2024-05-26 07:10:00,SystemResetWarning,0822.1,5.00,000.00,028.6,027.7,000.0,036.9,030.2,015.8,0000.0,0000.96,0000.31,0000.12
2024-05-26 07:11:00,SystemResetWarning,0822.1,5.01,000.00,028.6,027.7,000.0,036.9,030.2,015.8,0000.0,0000.47,0000.25,0000.10
2024-05-26 07:12:00,SystemResetWarning,0822.2,5.00,000.00,028.6,027.6,000.0,036.9,030.2,015.8,0000.0,0000.38,0000.21,0000.10
2024-05-26 07:13:00,SystemResetWarning,0822.3,4.99,000.00,028.5,027.6,000.0,036.9,030.2,015.8,0000.0,0000.35,0000.19,0000.10
2024-05-26 07:14:00,SystemResetWarning,0822.2,4.99,000.00,028.5,027.6,000.0,036.9,030.2,015.9,0000.0,0000.33,0000.18,0000.10
2024-05-26 07:15:00,SystemResetWarning,0822.2,5.00,000.00,028.5,027.7,000.0,036.9,030.2,015.9,0000.0,0000.25,0000.15,0000.10
2024-05-26 07:16:00,SystemResetWarning,0822.2,5.01,000.00,028.5,027.7,000.0,036.9,030.2,015.8,0000.0,0000.25,0000.15,0000.10
2024-05-26 07:17:00,SystemResetWarning,0822.2,5.00,000.00,028.5,027.7,000.0,036.9,030.2,015.7,0000.0,0000.24,0000.15,0000.10
2024-05-26 07:18:00,SystemResetWarning,0822.2,4.99,000.00,028.5,027.7,000.0,036.9,030.2,015.7,0000.0,0000.38,0000.20,0000.09
2024-05-26 07:19:00,SystemResetWarning,0822.3,4.99,000.00,028.5,027.7,000.0,036.9,030.2,015.6,0000.0,0000.45,0000.22,0000.10
2024-05-26 07:20:00,SystemResetWarning,0822.2,5.00,000.00,028.5,027.7,000.0,036.9,030.2,015.6,0000.0,0000.50,0000.25,0000.11
2024-05-26 07:21:00,SystemResetWarning,0822.2,5.01,000.00,028.5,027.7,000.0,036.9,030.2,015.5,0000.0,0000.57,0000.27,0000.12
2024-05-26 07:22:00,SystemResetWarning,0822.3,5.01,000.00,028.5,027.7,000.0,036.9,030.2,015.6,0000.0,0000.62,0000.30,0000.13
2024-05-26 07:23:00,SystemResetWarning,0822.3,4.99,000.00,028.5,027.7,000.0,036.9,030.2,015.5,0000.0,0000.66,0000.32,0000.14
2024-05-26 07:24:00,SystemResetWarning,0822.3,4.99,000.00,028.5,027.7,000.0,036.9,030.2,015.6,0000.0,0000.76,0000.35,0000.15
2024-05-26 07:25:00,SystemResetWarning,0822.3,5.00,000.00,028.5,027.7,000.0,036.9,030.2,015.5,0000.0,0000.82,0000.37,0000.17
2024-05-26 07:26:00,SystemResetWarning,0822.2,5.00,000.00,028.5,027.6,000.0,036.8,030.2,015.5,0000.0,0000.82,0000.38,0000.18
2024-05-26 07:27:00,SystemResetWarning,0822.3,5.00,000.00,028.5,027.6,000.0,036.9,030.2,015.4,0000.0,0000.88,0000.42,0000.20
2024-05-26 07:28:00,SystemResetWarning,0822.3,5.01,000.00,028.5,027.6,000.0,036.9,030.2,015.5,0000.0,0000.94,0000.45,0000.21
2024-05-26 07:29:00,SystemResetWarning,0822.3,5.00,000.00,028.5,027.6,000.0,036.8,030.2,015.4,0000.0,0000.83,0000.42,0000.23
2024-05-26 07:30:00,SystemResetWarning,0822.3,5.00,000.00,028.5,027.6,000.0,036.8,030.2,015.4,0000.0,0000.81,0000.42,0000.24
2024-05-26 07:31:00,SystemResetWarning,0822.3,5.00,000.00,028.5,027.6,000.0,036.8,030.2,015.3,0000.0,0000.78,0000.42,0000.25
2024-05-26 07:32:00,SystemResetWarning,0822.3,4.99,000.00,028.5,027.6,000.0,036.8,030.2,015.2,0000.0,0000.74,0000.41,0000.26
2024-05-26 07:33:00,SystemResetWarning,0822.2,5.00,000.00,028.5,027.6,000.0,036.8,030.2,014.9,0000.0,0000.76,0000.41,0000.27
2024-05-26 07:34:00,SystemResetWarning,0822.3,5.00,000.00,028.5,027.6,000.0,036.8,030.2,014.9,0000.0,0000.74,0000.41,0000.27
2024-05-26 07:35:00,SystemResetWarning,0822.3,5.02,000.00,028.5,027.6,000.0,036.8,030.2,015.0,0000.0,0000.68,0000.41,0000.28
2024-05-26 07:36:00,SystemResetWarning,0822.3,4.99,000.00,028.5,027.6,000.0,036.8,030.1,015.1,0000.0,0000.67,0000.42,0000.29
2024-05-26 07:37:00,SystemResetWarning,0822.3,4.99,000.00,028.4,027.5,000.0,036.8,030.2,015.0,0000.0,0000.68,0000.43,0000.29
2024-05-26 07:38:00,SystemResetWarning,0822.4,4.99,000.00,028.4,027.5,000.0,036.8,030.1,015.0,0000.0,0000.68,0000.42,0000.29
2024-05-26 07:39:00,SystemResetWarning,0822.3,5.01,000.00,028.4,027.5,000.0,036.8,030.1,015.1,0000.0,0000.69,0000.43,0000.29
2024-05-26 07:40:00,SystemResetWarning,0822.4,5.00,000.00,028.4,027.5,000.0,036.8,030.1,015.1,0000.0,0000.66,0000.42,0000.30
2024-05-26 07:41:00,SystemResetWarning,0822.3,5.01,000.00,028.4,027.4,000.0,036.8,030.1,015.2,0000.0,0000.68,0000.42,0000.30
2024-05-26 07:42:00,SystemResetWarning,0822.2,4.99,000.00,028.4,027.4,000.0,036.8,030.1,015.4,0000.0,0000.74,0000.44,0000.30
2024-05-26 07:43:00,SystemResetWarning,0822.4,4.99,000.00,028.4,027.3,000.0,036.8,030.1,015.5,0000.0,0000.88,0000.46,0000.29
2024-05-26 07:44:00,SystemResetWarning,0822.4,4.99,000.00,028.3,027.3,000.0,036.7,030.1,015.5,0000.0,0001.30,0000.47,0000.29
2024-05-26 07:45:00,SystemResetWarning,0822.4,4.99,000.00,028.3,027.3,000.0,036.7,030.0,015.4,0000.0,0001.45,0000.49,0000.28
2024-05-26 07:46:00,SystemResetWarning,0822.4,5.00,000.00,028.3,027.3,000.0,036.7,030.0,015.6,0000.0,0001.44,0000.48,0000.27
2024-05-26 07:47:00,SystemResetWarning,0822.4,5.01,000.00,028.3,027.2,000.0,036.7,030.0,015.9,0000.0,0001.46,0000.48,0000.26
2024-05-26 07:48:00,SystemResetWarning,0822.4,5.00,000.00,028.3,027.2,000.0,036.7,030.0,016.0,0000.0,0001.74,0000.47,0000.24
2024-05-26 07:49:00,SystemResetWarning,0822.4,5.00,000.00,028.3,027.2,000.0,036.7,030.0,016.0,0000.0,0002.57,0000.44,0000.23
2024-05-26 07:50:00,SystemResetWarning,0822.4,5.00,000.00,028.2,027.2,000.0,036.7,030.0,015.9,0000.0,0002.56,0000.43,0000.21
2024-05-26 07:51:00,SystemResetWarning,0822.5,4.99,000.00,028.2,027.2,000.0,036.7,029.9,015.9,0000.0,0002.58,0000.44,0000.20
2024-05-26 07:52:00,SystemResetWarning,0822.4,5.00,000.00,028.2,027.2,000.0,036.6,029.9,015.9,0000.0,0002.52,0000.41,0000.19
2024-05-26 07:53:00,SystemResetWarning,0822.4,5.00,000.00,028.2,027.2,000.0,036.6,029.9,016.1,0000.0,0002.45,0000.38,0000.18
2024-05-26 07:54:00,SystemResetWarning,0822.4,5.00,000.00,028.2,027.2,000.0,036.6,029.9,016.1,0000.0,0002.28,0000.33,0000.17
2024-05-26 07:55:00,SystemResetWarning,0822.4,5.00,000.00,028.2,027.2,000.0,036.6,029.8,016.2,0000.0,0001.90,0000.32,0000.16
2024-05-26 07:56:00,SystemResetWarning,0822.4,5.01,000.00,028.2,027.2,000.0,036.6,029.8,016.3,0000.0,0001.67,0000.28,0000.16
2024-05-26 07:57:00,SystemResetWarning,0822.4,5.01,000.00,028.2,027.2,000.0,036.6,029.8,016.4,0000.0,0001.62,0000.26,0000.15
2024-05-26 07:58:00,SystemResetWarning,0822.4,4.99,000.00,028.1,027.2,000.0,036.6,029.8,016.4,0000.0,0001.58,0000.24,0000.15
2024-05-26 07:59:00,SystemResetWarning,0822.4,4.99,000.00,028.1,027.1,000.0,036.6,029.8,016.5,0000.0,0001.56,0000.23,0000.15
